Flag Weather past 2 weeks in Cranbrook, British Columbia, Canada

Now
25 °F

Light snow. Mostly cloudy.


Feels Like: 14 °F
Forecast: -5 / 13 °F
Wind: 12 mph from North

Location: Cranbrook

Current Time: Nov 28, 2014 at 10:46:42 PM

Latest Report: Nov 28, 2014 at 10:00 PM


Visibility: 3 mi

Pressure: 29.21 "Hg

Humidity: 93%

Dew point: 23 °F

Location of CranbrookLocation

Historic Weather in Cranbrook — Graph

°F

Cranbrook temperature yesterday

Maximum temperature yesterday: 48 °F (at 12:00 PM)
Minimum temperature yesterday: 32 °F (at 12:00 AM)
Average temperature yesterday: 39 °F

Past Weeks' High & Low Weather Summary

 TemperatureHumidityPressure
High48 °F (Nov 27, 12:00 PM)100% (Nov 24, 2:00 PM)30.80 "Hg (Nov 24, 2:00 PM)
Low-2 °F (Nov 14, 5:00 AM)48% (Nov 22, 4:00 PM)29.13 "Hg (Nov 28, 7:00 PM)
Average22 °F83%30.17 "Hg
* Reported Nov 13 9:00 PM — Nov 28 9:00 PM, Cranbrook, Weather by CustomWeather, © 2014

Note: Actual official high and low records may vary slightly from our data, if they occured in-between our weather recording intervals... More about our weather records

Advertising

Cranbrook weather history for previous 24 hours

 ConditionsComfort  
Time TempWeatherWind HumidityBarometerVisibility
9:00 PM
Nov 28
27 °FLight snow. Mostly cloudy.18 mph93%29.19 "Hg1 mi
8:00 PM36 °FSprinkles. Mostly cloudy.12 mph87%29.15 "Hg15 mi
7:00 PM41 °FSprinkles. Mostly cloudy.10 mph93%29.13 "Hg15 mi
6:00 PM43 °FSprinkles. Mostly cloudy.12 mph87%29.17 "Hg15 mi
5:00 PM43 °FSprinkles. Mostly cloudy.14 mph87%29.20 "Hg20 mi
4:00 PM45 °FSprinkles. Mostly cloudy.16 mph76%29.21 "Hg20 mi
3:00 PM45 °FSprinkles. Mostly cloudy.15 mph81%29.22 "Hg20 mi
2:00 PM45 °FSprinkles. Mostly cloudy.14 mph81%29.25 "Hg15 mi
1:00 PM46 °FSprinkles. Broken clouds.16 mph76%29.28 "Hg20 mi
12:00 PM46 °FMostly cloudy.15 mph76%29.32 "Hg15 mi
11:00 AM46 °FPartly sunny.15 mph76%29.36 "Hg20 mi
10:00 AM45 °FBroken clouds.15 mph76%29.38 "Hg20 mi
9:00 AM43 °FLight rain. Mostly cloudy.15 mph81%29.39 "Hg15 mi
8:00 AM43 °FHeavy rain. Passing clouds.13 mph81%29.40 "Hg20 mi
7:00 AM43 °FLight rain. Overcast.13 mph81%29.43 "Hg15 mi
6:00 AM41 °FOvercast.13 mph87%29.46 "Hg15 mi
5:00 AM41 °FLight rain. Mostly cloudy.10 mph87%29.48 "Hg15 mi
4:00 AM43 °FLight rain. Mostly cloudy.9 mph81%29.50 "Hg15 mi
3:00 AM43 °FLight rain. Mostly cloudy.9 mph87%29.53 "Hg15 mi
2:00 AM43 °FLight rain. Partly cloudy.6 mph81%29.55 "Hg15 mi
1:00 AM43 °FLight rain. Partly cloudy.12 mph87%29.57 "Hg15 mi
12:00 AM41 °FLight rain. Partly cloudy.7 mph93%29.61 "Hg15 mi
11:00 PM
Nov 27
37 °FPassing clouds.2 mph93%29.64 "Hg15 mi
10:00 PM37 °FPassing clouds.3 mph93%29.66 "Hg15 mi
Weather by CustomWeather, © 2014

See weather overviewHow to use our weather pages